Regional Weather Roundup
Issued by NWS Bismarck, ND

Home | Current Version | Previous Version | Text Only | Print | Product List | Glossary On
Versions: 1 2 3 4 5 6 7 8 9 10 11 12 13 14 15 16 17 18 19 20 21 22 23 24 25 26 27 28 29 30 31 32 33 34 35 36 37 38 39 40 41 42 43 44 45 46 47 48 49 50
000
ASUS43 KBIS 171302
RWRBIS

NWR BROADCAST TEXT
NATIONAL WEATHER SERVICE BISMARCK ND
700 AM CST TUE JAN 17 2017

NOTE: "FAIR" INDICATES FEW OR NO CLOUDS BELOW 12,000 FEET WITH NO
SIGNIFICANT WEATHER AND/OR OBSTRUCTIONS TO VISIBILITY.


CITY           SKY/WX    TMP DP  RH WIND       PRES   REMARKS
WILLISTON      FAIR      10   5  80 S5        29.82F WCI   2
MINOT          FAIR      19  13  77 S9        29.83F WCI   8
MINOT AFB      NOT AVBL
BISMARCK       FAIR       5   1  83 CALM      29.95F
DICKINSON      FAIR      21   9  59 SW15      29.85F WCI   8
GARRISON         N/A      6   2  83 S3        29.87F
HETTINGER ARPT FAIR       8   4  83 CALM      29.92F
JAMESTOWN      FAIR       7   5  91 CALM      29.93F
CARRINGTON     FAIR      10   7  85 SW3       29.93F
HAZEN            N/A    N/A N/A N/A CALM      29.92F
MANDAN         FAIR      10   9  92 S7        29.93F WCI   0
STANLEY        FAIR      12   9  85 S3        29.83F
WATFORD CITY   FAIR       7   3  85 W3        29.83F
$$

CITY           SKY/WX    TMP DP  RH WIND       PRES   REMARKS
GRAND FORKS    FAIR       1  -3  83 S7        29.94F WCI -12
GRAND FORKS AF FAIR      10   6  84 S9        29.93F WCI  -4
DEVILS LAKE    FAIR      10   7  87 SW8       29.91F WCI  -2
FARGO          FAIR       5   1  83 S3        29.98F
GRAFTON        FAIR       1  -2  85 S7        29.94F WCI -11
GWINNER        FAIR      12   9  85 SW7       29.97F WCI   2
$$

CITY           SKY/WX    TMP DP  RH WIND       PRES   REMARKS
ABERDEEN       FAIR      -3  -8  79 S5        30.01F WCI -13
MOBRIDGE       FAIR       7   1  76 E5        29.95F WCI  -2
BUFFALO          N/A     21   9  59 SW10      29.84F WCI  10
RAPID CITY     FAIR      11   7  84 CALM      29.96F
GLASGOW        FAIR      14   8  77 S10       29.75F WCI   1
SIDNEY         FAIR      11   6  81 S22       29.82F WCI  -8
WOLF POINT     FAIR       1  -5  75 CALM      29.80F
GLENDIVE       FAIR      11   5  77 S20       29.84F WCI  -7
MILES CITY     FAIR       9   2  73 S7        29.89S WCI  -2
$$

CITY           SKY/WX    TMP DP  RH WIND       PRES   REMARKS
BILLINGS       FAIR      26  11  52 SW25G32   29.88S WCI  11
GREAT FALLS    FAIR      33  17  51 SW24      29.82F
$$




USA.gov is the U.S. government's official web portal to all federal, state and local government web resources and services.